GSAT-7A

Last updated on Mon Nov 03 2025 00:02:59 GMT+0000 (Coordinated Universal Time)

1 43864U 18105A 25306.49261153 .00000039 00000+0 00000+0 0 9997 2 43864 0.0235 255.0721 0002889 324.8503 62.2631 1.00269895 25176
UTC large
Height (km)
Speed (km/s)
/
Latitude / Longitude
Inclination (degrees)
Orbital Period (minutes)
Azimuth
Elevation
Range (km)
Doppler Factor

Next 0 passes for location: London (51.5072 / 0.1276)

Sorry there are no passes over London.